Time,TemperatureF,DewpointF,PressureIn,WindDirection,WindDirectionDegrees,WindSpeedMPH,WindSpeedGustMPH,Humidity,HourlyPrecipIn,Conditions,Clouds,dailyrainin,SolarRadiationWatts/m^2,SoftwareType,DateUTC
2013-02-05 00:01:00,28.0,3.0,-100.00,WNW,293,14.0,24.0,34,0.00,,,0.00,0.000000,,2013-02-05 07:01:00,
2013-02-05 00:11:00,28.0,3.0,-100.00,WNW,293,14.0,24.0,34,0.00,,,0.00,0.000000,,2013-02-05 07:11:00,
2013-02-05 00:22:00,28.0,3.0,-100.00,WNW,293,14.0,24.0,34,0.00,,,0.00,0.000000,,2013-02-05 07:22:00,
2013-02-05 00:31:00,28.0,3.0,-100.00,WNW,293,14.0,24.0,34,0.00,,,0.00,0.000000,,2013-02-05 07:31:00,
2013-02-05 00:52:00,26.0,4.0,-100.00,NW,309,8.0,24.0,39,0.00,,,0.00,0.000000,,2013-02-05 07:52:00,
2013-02-05 01:01:00,26.0,4.0,-100.00,NW,309,8.0,24.0,39,0.00,,,0.00,0.000000,,2013-02-05 08:01:00,
2013-02-05 01:11:00,26.0,4.0,-100.00,NW,309,8.0,24.0,39,0.00,,,0.00,0.000000,,2013-02-05 08:11:00,
2013-02-05 01:21:00,26.0,4.0,-100.00,NW,309,8.0,24.0,39,0.00,,,0.00,0.000000,,2013-02-05 08:21:00,
2013-02-05 01:31:00,26.0,4.0,-100.00,NW,309,8.0,24.0,39,0.00,,,0.00,0.000000,,2013-02-05 08:31:00,
2013-02-05 01:52:00,25.0,5.0,-100.00,NW,304,7.0,14.0,41,0.00,,,0.00,0.000000,,2013-02-05 08:52:00,
2013-02-05 02:02:00,25.0,5.0,-100.00,NW,304,7.0,14.0,41,0.00,,,0.00,0.000000,,2013-02-05 09:02:00,
2013-02-05 02:11:00,25.0,5.0,-100.00,NW,304,7.0,14.0,41,0.00,,,0.00,0.000000,,2013-02-05 09:11:00,
2013-02-05 02:21:00,25.0,5.0,-100.00,NW,304,7.0,14.0,41,0.00,,,0.00,0.000000,,2013-02-05 09:21:00,
2013-02-05 02:32:00,25.0,5.0,-100.00,NW,304,7.0,14.0,41,0.00,,,0.00,0.000000,,2013-02-05 09:32:00,
2013-02-05 02:52:00,24.0,4.0,-100.00,WNW,295,8.0,16.0,42,0.00,,,0.00,0.000000,,2013-02-05 09:52:00,
2013-02-05 03:02:00,24.0,4.0,-100.00,WNW,295,8.0,16.0,42,0.00,,,0.00,0.000000,,2013-02-05 10:02:00,
2013-02-05 03:11:00,24.0,4.0,-100.00,WNW,295,8.0,16.0,42,0.00,,,0.00,0.000000,,2013-02-05 10:11:00,
2013-02-05 03:21:00,24.0,4.0,-100.00,WNW,295,8.0,16.0,42,0.00,,,0.00,0.000000,,2013-02-05 10:21:00,
2013-02-05 03:32:00,24.0,4.0,-100.00,WNW,295,8.0,16.0,42,0.00,,,0.00,0.000000,,2013-02-05 10:32:00,
2013-02-05 03:52:00,23.0,4.0,-100.00,West,270,6.0,17.0,43,0.00,,,0.00,0.000000,,2013-02-05 10:52:00,
2013-02-05 04:01:00,23.0,4.0,-100.00,West,270,6.0,17.0,43,0.00,,,0.00,0.000000,,2013-02-05 11:01:00,
2013-02-05 04:11:00,23.0,4.0,-100.00,West,270,6.0,17.0,43,0.00,,,0.00,0.000000,,2013-02-05 11:11:00,
2013-02-05 04:22:00,23.0,4.0,-100.00,West,270,6.0,17.0,43,0.00,,,0.00,0.000000,,2013-02-05 11:22:00,
2013-02-05 04:32:00,23.0,4.0,-100.00,West,270,6.0,17.0,43,0.00,,,0.00,0.000000,,2013-02-05 11:32:00,
2013-02-05 04:52:00,23.0,5.0,-100.00,WNW,287,7.0,12.0,45,0.00,,,0.00,0.000000,,2013-02-05 11:52:00,
2013-02-05 05:01:00,23.0,5.0,-100.00,WNW,287,7.0,12.0,45,0.00,,,0.00,0.000000,,2013-02-05 12:01:00,
2013-02-05 05:12:00,23.0,5.0,-100.00,WNW,287,7.0,12.0,45,0.00,,,0.00,0.000000,,2013-02-05 12:12:00,
2013-02-05 05:22:00,23.0,5.0,-100.00,WNW,287,7.0,12.0,45,0.00,,,0.00,0.000000,,2013-02-05 12:22:00,
2013-02-05 05:32:00,23.0,5.0,-100.00,WNW,287,7.0,12.0,45,0.00,,,0.00,0.000000,,2013-02-05 12:32:00,
2013-02-05 05:52:00,23.0,4.0,-100.00,WNW,287,8.0,14.0,44,0.00,,,0.00,0.000000,,2013-02-05 12:52:00,
2013-02-05 06:01:00,23.0,4.0,-100.00,WNW,287,8.0,14.0,44,0.00,,,0.00,0.000000,,2013-02-05 13:01:00,
2013-02-05 06:12:00,23.0,4.0,-100.00,WNW,287,8.0,14.0,44,0.00,,,0.00,0.000000,,2013-02-05 13:12:00,
2013-02-05 06:22:00,23.0,4.0,-100.00,WNW,287,8.0,14.0,44,0.00,,,0.00,0.000000,,2013-02-05 13:22:00,
2013-02-05 06:32:00,23.0,4.0,-100.00,WNW,287,8.0,14.0,44,0.00,,,0.00,0.000000,,2013-02-05 13:32:00,
2013-02-05 06:52:00,22.0,5.0,-100.00,West,276,8.0,14.0,48,0.00,,,-99.99,0.000000,,2013-02-05 13:52:00,
2013-02-05 07:01:00,22.0,5.0,-100.00,West,276,8.0,14.0,48,0.00,,,-99.99,0.000000,,2013-02-05 14:01:00,
2013-02-05 07:12:00,22.0,5.0,-100.00,West,276,8.0,14.0,48,0.00,,,-99.99,0.000000,,2013-02-05 14:12:00,
2013-02-05 07:21:00,22.0,5.0,-100.00,West,276,8.0,14.0,48,0.00,,,-99.99,0.000000,,2013-02-05 14:21:00,
2013-02-05 07:31:00,22.0,5.0,-100.00,West,276,8.0,14.0,48,0.00,,,-99.99,0.000000,,2013-02-05 14:31:00,
2013-02-05 07:52:00,22.0,4.0,-100.00,West,259,6.0,13.0,46,0.00,,,0.00,5.000000,,2013-02-05 14:52:00,
2013-02-05 08:02:00,22.0,4.0,-100.00,West,259,6.0,13.0,46,0.00,,,0.00,5.000000,,2013-02-05 15:02:00,
2013-02-05 08:11:00,22.0,4.0,-100.00,West,259,6.0,13.0,46,0.00,,,0.00,5.000000,,2013-02-05 15:11:00,
2013-02-05 08:21:00,22.0,4.0,-100.00,West,259,6.0,13.0,46,0.00,,,0.00,5.000000,,2013-02-05 15:21:00,
2013-02-05 08:32:00,22.0,4.0,-100.00,West,259,6.0,13.0,46,0.00,,,0.00,5.000000,,2013-02-05 15:32:00,
2013-02-05 08:52:00,24.0,5.0,-100.00,East,99,1.0,10.0,44,0.00,,,0.00,23.000000,,2013-02-05 15:52:00,
2013-02-05 09:01:00,24.0,5.0,-100.00,East,99,1.0,10.0,44,0.00,,,0.00,23.000000,,2013-02-05 16:01:00,
2013-02-05 09:11:00,24.0,5.0,-100.00,East,99,1.0,10.0,44,0.00,,,0.00,23.000000,,2013-02-05 16:11:00,
2013-02-05 09:22:00,24.0,5.0,-100.00,East,99,1.0,10.0,44,0.00,,,0.00,23.000000,,2013-02-05 16:22:00,
2013-02-05 09:32:00,24.0,5.0,-100.00,East,99,1.0,10.0,44,0.00,,,0.00,23.000000,,2013-02-05 16:32:00,
2013-02-05 09:52:00,32.0,7.0,-100.00,NNE,31,1.0,5.0,34,0.00,,,-99.99,211.000000,,2013-02-05 16:52:00,
2013-02-05 10:01:00,32.0,7.0,-100.00,NNE,31,1.0,5.0,34,0.00,,,-99.99,211.000000,,2013-02-05 17:01:00,
2013-02-05 10:11:00,32.0,7.0,-100.00,NNE,31,1.0,5.0,34,0.00,,,-99.99,211.000000,,2013-02-05 17:11:00,
2013-02-05 10:22:00,32.0,7.0,-100.00,NNE,31,1.0,5.0,34,0.00,,,-99.99,211.000000,,2013-02-05 17:22:00,
2013-02-05 10:32:00,32.0,7.0,-100.00,NNE,31,1.0,5.0,34,0.00,,,-99.99,211.000000,,2013-02-05 17:32:00,
2013-02-05 10:52:00,35.0,7.0,-100.00,NW,325,3.0,6.0,30,0.00,,,0.00,514.000000,,2013-02-05 17:52:00,
2013-02-05 11:02:00,35.0,7.0,-100.00,NW,325,3.0,6.0,30,0.00,,,0.00,514.000000,,2013-02-05 18:02:00,
2013-02-05 11:11:00,35.0,7.0,-100.00,NW,325,3.0,6.0,30,0.00,,,0.00,514.000000,,2013-02-05 18:11:00,
2013-02-05 11:22:00,35.0,7.0,-100.00,NW,325,3.0,6.0,30,0.00,,,0.00,514.000000,,2013-02-05 18:22:00,
2013-02-05 11:32:00,35.0,7.0,-100.00,NW,325,3.0,6.0,30,0.00,,,0.00,514.000000,,2013-02-05 18:32:00,
2013-02-05 12:02:00,40.0,6.0,-100.00,NNW,339,3.0,6.0,24,0.00,,,0.00,625.000000,,2013-02-05 19:02:00,
2013-02-05 12:11:00,40.0,6.0,-100.00,NNW,339,3.0,6.0,24,0.00,,,0.00,625.000000,,2013-02-05 19:11:00,
2013-02-05 12:21:00,40.0,6.0,-100.00,NNW,339,3.0,6.0,24,0.00,,,0.00,625.000000,,2013-02-05 19:21:00,
2013-02-05 12:32:00,40.0,6.0,-100.00,NNW,339,3.0,6.0,24,0.00,,,0.00,625.000000,,2013-02-05 19:32:00,
2013-02-05 12:52:00,43.0,6.0,-100.00,NNW,330,4.0,7.0,21,0.00,,,0.00,676.000000,,2013-02-05 19:52:00,
2013-02-05 13:01:00,43.0,6.0,-100.00,NNW,330,4.0,7.0,21,0.00,,,0.00,676.000000,,2013-02-05 20:01:00,
2013-02-05 13:11:00,43.0,6.0,-100.00,NNW,330,4.0,7.0,21,0.00,,,0.00,676.000000,,2013-02-05 20:11:00,
2013-02-05 13:21:00,43.0,6.0,-100.00,NNW,330,4.0,7.0,21,0.00,,,0.00,676.000000,,2013-02-05 20:21:00,
2013-02-05 13:32:00,43.0,6.0,-100.00,NNW,330,4.0,7.0,21,0.00,,,0.00,676.000000,,2013-02-05 20:32:00,
2013-02-05 13:52:00,44.0,6.0,-100.00,NNW,336,5.0,9.0,20,0.00,,,0.00,662.000000,,2013-02-05 20:52:00,
2013-02-05 14:02:00,44.0,6.0,-100.00,NNW,336,5.0,9.0,20,0.00,,,0.00,662.000000,,2013-02-05 21:02:00,
2013-02-05 14:11:00,44.0,6.0,-100.00,NNW,336,5.0,9.0,20,0.00,,,0.00,662.000000,,2013-02-05 21:11:00,
2013-02-05 14:22:00,44.0,6.0,-100.00,NNW,336,5.0,9.0,20,0.00,,,0.00,662.000000,,2013-02-05 21:22:00,
2013-02-05 14:32:00,44.0,6.0,-100.00,NNW,336,5.0,9.0,20,0.00,,,0.00,662.000000,,2013-02-05 21:32:00,
2013-02-05 14:52:00,46.0,5.0,-100.00,WNW,285,7.0,12.0,18,0.00,,,0.00,581.000000,,2013-02-05 21:52:00,
2013-02-05 15:01:00,46.0,5.0,-100.00,WNW,285,7.0,12.0,18,0.00,,,0.00,581.000000,,2013-02-05 22:01:00,
2013-02-05 15:11:00,46.0,5.0,-100.00,WNW,285,7.0,12.0,18,0.00,,,0.00,581.000000,,2013-02-05 22:11:00,
2013-02-05 15:21:00,46.0,5.0,-100.00,WNW,285,7.0,12.0,18,0.00,,,0.00,581.000000,,2013-02-05 22:21:00,
2013-02-05 15:32:00,46.0,5.0,-100.00,WNW,285,7.0,12.0,18,0.00,,,0.00,581.000000,,2013-02-05 22:32:00,
2013-02-05 16:02:00,46.0,4.0,-100.00,WNW,283,7.0,18.0,17,0.00,,,0.00,445.000000,,2013-02-05 23:02:00,
2013-02-05 16:11:00,46.0,4.0,-100.00,WNW,283,7.0,18.0,17,0.00,,,0.00,445.000000,,2013-02-05 23:11:00,
2013-02-05 16:22:00,46.0,4.0,-100.00,WNW,283,7.0,18.0,17,0.00,,,0.00,445.000000,,2013-02-05 23:22:00,
2013-02-05 16:32:00,46.0,4.0,-100.00,WNW,283,7.0,18.0,17,0.00,,,0.00,445.000000,,2013-02-05 23:32:00,
2013-02-05 16:53:00,44.0,7.0,-100.00,West,262,6.0,11.0,21,0.00,,,0.00,267.000000,,2013-02-05 23:53:00,
2013-02-05 17:02:00,44.0,7.0,-100.00,West,262,6.0,11.0,21,0.00,,,0.00,267.000000,,2013-02-06 00:02:00,
2013-02-05 17:11:00,44.0,7.0,-100.00,West,262,6.0,11.0,21,0.00,,,0.00,267.000000,,2013-02-06 00:11:00,
2013-02-05 17:22:00,44.0,7.0,-100.00,West,262,6.0,11.0,21,0.00,,,0.00,267.000000,,2013-02-06 00:22:00,
2013-02-05 17:32:00,44.0,7.0,-100.00,West,262,6.0,11.0,21,0.00,,,0.00,267.000000,,2013-02-06 00:32:00,
2013-02-05 17:52:00,37.0,4.0,-100.00,SE,126,2.0,12.0,25,0.00,,,0.00,55.000000,,2013-02-06 00:52:00,
2013-02-05 18:02:00,37.0,4.0,-100.00,SE,126,2.0,12.0,25,0.00,,,0.00,55.000000,,2013-02-06 01:02:00,
2013-02-05 18:11:00,37.0,4.0,-100.00,SE,126,2.0,12.0,25,0.00,,,0.00,55.000000,,2013-02-06 01:11:00,
2013-02-05 18:22:00,37.0,4.0,-100.00,SE,126,2.0,12.0,25,0.00,,,0.00,55.000000,,2013-02-06 01:22:00,
2013-02-05 18:32:00,37.0,4.0,-100.00,SE,126,2.0,12.0,25,0.00,,,0.00,55.000000,,2013-02-06 01:32:00,
2013-02-05 18:53:00,37.0,5.0,-100.00,SSE,157,5.0,11.0,26,0.00,,,0.00,1.000000,,2013-02-06 01:53:00,
2013-02-05 19:01:00,37.0,5.0,-100.00,SSE,157,5.0,11.0,26,0.00,,,0.00,1.000000,,2013-02-06 02:01:00,
2013-02-05 19:11:00,37.0,5.0,-100.00,SSE,157,5.0,11.0,26,0.00,,,0.00,1.000000,,2013-02-06 02:11:00,
2013-02-05 19:22:00,37.0,5.0,-100.00,SSE,157,5.0,11.0,26,0.00,,,0.00,1.000000,,2013-02-06 02:22:00,
2013-02-05 19:32:00,37.0,5.0,-100.00,SSE,157,5.0,11.0,26,0.00,,,0.00,1.000000,,2013-02-06 02:32:00,
2013-02-05 19:52:00,36.0,6.0,-100.00,SSE,164,3.0,13.0,28,0.00,,,-99.99,0.000000,,2013-02-06 02:52:00,
2013-02-05 20:03:00,36.0,6.0,-100.00,SSE,164,3.0,13.0,28,0.00,,,-99.99,0.000000,,2013-02-06 03:03:00,
2013-02-05 20:12:00,36.0,6.0,-100.00,SSE,164,3.0,13.0,28,0.00,,,-99.99,0.000000,,2013-02-06 03:12:00,
2013-02-05 20:22:00,36.0,6.0,-100.00,SSE,164,3.0,13.0,28,0.00,,,-99.99,0.000000,,2013-02-06 03:22:00,
2013-02-05 20:32:00,36.0,6.0,-100.00,SSE,164,3.0,13.0,28,0.00,,,-99.99,0.000000,,2013-02-06 03:32:00,
2013-02-05 20:53:00,36.0,5.0,-100.00,South,181,6.0,11.0,27,0.00,,,0.00,0.000000,,2013-02-06 03:53:00,
2013-02-05 21:02:00,36.0,5.0,-100.00,South,181,6.0,11.0,27,0.00,,,0.00,0.000000,,2013-02-06 04:02:00,
2013-02-05 21:11:00,36.0,5.0,-100.00,South,181,6.0,11.0,27,0.00,,,0.00,0.000000,,2013-02-06 04:11:00,
2013-02-05 21:21:00,36.0,5.0,-100.00,South,181,6.0,11.0,27,0.00,,,0.00,0.000000,,2013-02-06 04:21:00,
2013-02-05 21:32:00,36.0,5.0,-100.00,South,181,6.0,11.0,27,0.00,,,0.00,0.000000,,2013-02-06 04:32:00,
2013-02-05 21:52:00,36.0,-1.0,-100.00,SSW,201,9.0,19.0,20,-99.99,,,0.00,0.000000,,2013-02-06 04:52:00,
2013-02-05 22:02:00,36.0,-1.0,-100.00,SSW,201,9.0,19.0,20,-99.99,,,0.00,0.000000,,2013-02-06 05:02:00,
2013-02-05 22:53:00,36.0,3.0,-100.00,SSW,211,12.0,20.0,24,-99.99,,,0.00,0.000000,,2013-02-06 05:53:00,
2013-02-05 23:01:00,36.0,3.0,-100.00,SSW,211,12.0,20.0,24,-99.99,,,0.00,0.000000,,2013-02-06 06:01:00,
2013-02-05 23:52:00,35.0,4.0,-100.00,SW,216,13.0,27.0,27,-99.99,,,0.00,0.000000,,2013-02-06 06:52:00,